EW2549 Weather Reports


Display with metric or nautical units.
time (UTC)temp
F
wind
direction
speed
MPH
gust
MPH
rain 1hr
in
rain 24hr
in
rain mn
in
humidity
%
barometer
mb
20260904163034 84 104 1.0 8.0 0.00 0.00 0.00 27 1004.1
20260904161533 82 85 0.0 3.0 0.00 0.00 0.00 30 1004.1
20260904160027 81 90 0.0 2.0 0.00 0.00 0.00 31 1004.2
20260904154526 79 119 0.0 0.0 0.00 0.00 0.00 32 1004.2
20260904153018 77 116 0.0 0.0 0.00 0.00 0.00 31 1004.3
20260904151516 75 121 0.0 5.0 0.00 0.00 0.00 33 1004.2
20260904150017 72 124 0.0 0.0 0.00 0.00 0.00 43 1004.3
20260904144506 68 125 0.0 0.0 0.00 0.00 0.00 46 1004.3
20260904143006 64 155 0.0 0.0 0.00 0.00 0.00 47 1004.4
20260904141603 63 155 0.0 0.0 0.00 0.00 0.00 50 1004.4
20260904140002 59 219 0.0 0.0 0.00 0.00 0.00 58 1004.3
20260904134601 56 225 0.0 0.0 0.00 0.00 0.00 62 1003.9
20260904133104 54 225 0.0 0.0 0.00 0.00 0.00 61 1003.6
20260904131555 53 240 0.0 0.0 0.00 0.00 0.00 62 1003.6
20260904130054 53 240 0.0 0.0 0.00 0.00 0.00 59 1003.6
20260904124600 53 240 0.0 0.0 0.00 0.00 0.00 60 1003.3
20260904123051 53 240 0.0 0.0 0.00 0.00 0.00 61 1003.4
20260904121549 53 240 0.0 0.0 0.00 0.00 0.00 60 1003.2
20260904120054 54 240 0.0 0.0 0.00 0.00 0.00 60 1003.0
20260904114547 54 240 0.0 0.0 0.00 0.00 0.00 59 1003.0
20260904113043 55 240 0.0 0.0 0.00 0.00 0.00 59 1002.9
20260904111541 55 240 0.0 0.0 0.00 0.00 0.00 60 1002.9
20260904110042 56 240 0.0 0.0 0.00 0.00 0.00 55 1002.7
20260904104535 56 240 0.0 0.0 0.00 0.00 0.00 57 1002.2
20260904103035 57 234 0.0 0.0 0.00 0.00 0.00 55 1002.3
20260904101531 58 234 0.0 0.0 0.00 0.00 0.00 54 1002.2
20260904100028 58 234 0.0 0.0 0.00 0.00 0.00 53 1002.2
20260904094538 59 234 0.0 0.0 0.00 0.00 0.00 53 1001.9
20260904093025 59 234 0.0 0.0 0.00 0.00 0.00 52 1001.9
20260904091532 59 213 0.0 0.0 0.00 0.00 0.00 52 1001.8
20260904090021 60 213 0.0 0.0 0.00 0.00 0.00 54 1001.7
20260904084519 60 213 0.0 0.0 0.00 0.00 0.00 49 1001.7
20260904083016 61 213 0.0 0.0 0.00 0.00 0.00 48 1001.6
20260904081515 61 213 0.0 0.0 0.00 0.00 0.00 48 1001.6
20260904074510 62 213 0.0 0.0 0.00 0.00 0.00 47 1001.3
20260904073008 63 213 0.0 0.0 0.00 0.00 0.00 46 1001.5
20260904071506 63 213 0.0 0.0 0.00 0.00 0.00 47 1001.5
20260904070004 63 213 0.0 0.0 0.00 0.00 0.00 46 1001.7
20260904064625 64 138 0.0 0.0 0.00 0.00 0.00 48 1001.7
20260904063113 65 169 0.0 0.0 0.00 0.00 0.00 46 1002.0
20260904061553 66 169 0.0 0.0 0.00 0.00 0.00 46 1002.1
20260904060105 67 109 0.0 0.0 0.00 0.00 0.00 43 1002.2
20260904054552 67 109 0.0 3.0 0.00 0.00 0.00 41 1002.2
20260904053048 69 252 0.0 0.0 0.00 0.00 0.00 40 1001.7
20260904051547 70 252 0.0 0.0 0.00 0.00 0.00 37 1001.5
20260904050050 71 252 0.0 0.0 0.00 0.00 0.00 35 1001.4
20260904044546 73 252 0.0 1.0 0.00 0.00 0.00 34 1001.4
20260904043046 73 252 0.0 0.0 0.00 0.00 0.00 33 1001.5
20260904041545 74 252 0.0 0.0 0.00 0.00 0.00 33 1001.5
20260904040047 74 252 0.0 0.0 0.00 0.00 0.00 32 1001.4
20260904034547 75 298 0.0 9.0 0.00 0.00 0.00 32 1001.3
20260904033043 75 318 0.0 4.0 0.00 0.00 0.00 32 1001.0
20260904031543 76 277 0.0 4.0 0.00 0.00 0.00 32 1001.1
20260904030043 76 327 0.0 5.0 0.00 0.00 0.00 32 1001.0
20260904024543 76 317 0.0 5.0 0.00 0.00 0.00 32 1000.8
20260904023044 76 317 0.0 4.0 0.00 0.00 0.00 31 1000.8
20260904021551 77 302 0.0 2.0 0.00 0.00 0.00 31 1000.6
20260904020042 78 337 0.0 1.0 0.00 0.00 0.00 29 1000.4
20260904013103 81 5 0.0 0.0 0.00 0.00 0.00 28 1000.4
20260904011539 83 21 0.0 0.0 0.00 0.00 0.00 26 1000.4
20260904010039 85 50 0.0 0.0 0.00 0.00 0.00 24 1000.4
20260904004538 86 50 0.0 4.0 0.00 0.00 0.00 23 1000.4
20260904003038 87 54 0.0 8.0 0.00 0.00 0.00 21 1000.4
20260904001554 88 55 0.0 4.0 0.00 0.00 0.00 21 1000.3
20260904000036 90 55 1.0 10.0 0.00 0.00 0.00 20 1000.3
20260903234536 91 36 0.0 5.0 0.00 0.00 0.00 19 1000.3
20260903233042 94 28 0.0 2.0 0.00 0.00 0.00 17 1000.1
20260903231535 94 30 0.0 3.0 0.00 0.00 0.00 17 1000.2
20260903230035 94 35 0.0 1.0 0.00 0.00 0.00 17 1000.2
20260903224536 94 342 0.0 4.0 0.00 0.00 0.00 18 1000.3
20260903223029 93 13 0.0 5.0 0.00 0.00 0.00 18 1000.5
20260903221527 93 78 0.0 5.0 0.00 0.00 0.00 18 1000.6
20260903220025 93 60 1.0 11.0 0.00 0.00 0.00 17 1000.8
20260903214533 92 50 0.0 8.0 0.00 0.00 0.00 19 1001.0
20260903213032 92 92 0.0 3.0 0.00 0.00 0.00 19 1001.2
20260903211518 92 87 0.0 5.0 0.00 0.00 0.00 19 1001.4
20260903210016 91 65 0.0 6.0 0.00 0.00 0.00 20 1001.5
20260903204514 90 53 0.0 8.0 0.00 0.00 0.00 20 1001.8
20260903203012 90 110 2.0 9.0 0.00 0.00 0.00 19 1002.0
20260903201513 90 57 0.0 14.0 0.00 0.00 0.00 21 1002.0
20260903200009 90 134 0.0 5.0 0.00 0.00 0.00 20 1002.2
20260903194507 90 75 2.0 11.0 0.00 0.00 0.00 20 1002.3
20260903193008 90 158 0.0 5.0 0.00 0.00 0.00 20 1002.4
20260903191501 88 88 0.0 10.0 0.00 0.00 0.00 20 1002.7
20260903190058 88 98 0.0 8.0 0.00 0.00 0.00 20 1002.9
20260903184605 88 77 0.0 9.0 0.00 0.00 0.00 22 1003.0
20260903183154 88 112 0.0 10.0 0.00 0.00 0.00 21 1003.3
20260903181554 86 62 0.0 5.0 0.00 0.00 0.00 23 1003.6
20260903180052 86 71 0.0 9.0 0.00 0.00 0.00 25 1003.8
20260903174547 85 153 0.0 8.0 0.00 0.00 0.00 24 1003.9
20260903173044 85 74 0.0 7.0 0.00 0.00 0.00 24 1004.0
20260903171546 84 79 1.0 9.0 0.00 0.00 0.00 26 1004.2
20260903170047 83 107 1.0 7.0 0.00 0.00 0.00 26 1004.2
20260903164537 82 87 0.0 7.0 0.00 0.00 0.00 29 1004.3